Retour au catalogue

HYDRA-2

ActifScienceSSO
NORAD 67389·PAYLOAD·🇪🇸 Spain

Lancé Jan 11, 2026 depuis Vandenberg Space Force Base

Loading…

Prochains Passages (prochaines 24 heures)

TLE

FraisSource: Space-Track

Époque: Sep 13, 2026, 22:20 UTC

1 67389U 26004AC  26256.93116534  .00003528  00000-0  17016-3 0  9994
2 67389  97.4639 254.8885 0004533  48.9319 311.2306 15.19341582 37221

Suivez HYDRA-2 en temps réel avec AllMySat

Download on the App Store